Vestborg — E5U2070 — position and weather

sailwx.info

Track history (hours):
 
Tides and Currents Weather Stations Pressure Air Temp Water Temp Dewpoint Dewpoint Depression Visibility Wind Speed Wind Dir Waves Ship Positions

Vestborg

Last reported at 2014-Oct-01 00:33 UTC. Time now 2014-Oct-01 08:23 UTC.
Position N 67°15' E 014°59'.

Length 66 m; draft 5.4 m.

Type: Cargo ship. MMSI: 518120000.

Date/timePositionNaut miles runAvg speedWind from/ knotsBaromVisibWave heightAir tempDewpointWater temp
2014-Oct-01 00:33N 67°15' E 014°59'7 7.4
2014-Sep-30 23:33N 67°13' E 014°41'4 4.0
2014-Sep-30 22:33N 67°15' E 014°32'7 6.8
2014-Sep-30 21:33N 67°15' E 014°14'4 4.4
2014-Sep-30 20:33N 67°18' E 014°23'0 0.0
2014-Sep-30 19:33N 67°18' E 014°23'0 0.0
2014-Sep-30 18:33N 67°18' E 014°23'0 0.0
2014-Sep-30 17:33N 67°18' E 014°23'0 0.0
2014-Sep-30 16:33N 67°18' E 014°23'0 0.0
2014-Sep-30 15:33N 67°18' E 014°23'0 0.0
2014-Sep-30 14:33N 67°18' E 014°23'0 0.0
2014-Sep-30 13:33N 67°18' E 014°23'58 4.1
2014-Sep-29 23:21N 66°31' E 012°58'6 7.8
2014-Sep-29 22:32N 66°24' E 012°59'18 3.4
2014-Sep-29 17:16N 66°07' E 012°45'  
2014-Sep-26 07:33N 66°23' E 012°58'7 6.7
2014-Sep-26 06:32N 66°30' E 012°59'6 6.5
2014-Sep-26 05:33N 66°36' E 013°04'24 7.2
2014-Sep-26 02:17N 66°57' E 013°29'7 7.9
2014-Sep-26 01:21N 67°01' E 013°45'7 8.2
2014-Sep-26 00:31N 67°06' E 013°58'8 8.0
2014-Sep-25 23:33N 67°13' E 014°08'8 7.9
2014-Sep-25 22:34N 67°17' E 014°24'1 0.8
2014-Sep-25 21:33N 67°17' E 014°22'3 3.1
2014-Sep-25 20:33N 67°15' E 014°27'6 5.6
2014-Sep-25 19:33N 67°13' E 014°41'3 3.1
2014-Sep-25 18:33N 67°15' E 014°48'5 4.5
2014-Sep-25 17:33N 67°15' E 014°60'2 0.1
2014-Sep-25 02:33N 67°16' E 014°55'7 7.5
2014-Sep-25 01:33N 67°14' E 014°36'4 4.1
2014-Sep-25 00:33N 67°14' E 014°26'4 3.9
2014-Sep-24 23:33N 67°13' E 014°17'5 4.6
2014-Sep-24 22:33N 67°11' E 014°06'8 7.6
2014-Sep-24 21:33N 67°05' E 013°55'8 8.1
2014-Sep-24 20:31N 66°60' E 013°38'32 7.7
2014-Sep-24 16:24N 66°32' E 012°59'7 8.2
2014-Sep-24 15:30N 66°25' E 012°59'4 0.8
2014-Sep-24 10:21N 66°21' E 012°57'7 8.8
2014-Sep-24 09:33N 66°28' E 012°59'29 8.5
2014-Sep-24 06:04N 66°55' E 013°28'4 7.8
2014-Sep-24 05:31N 66°59' E 013°34'9 9.0
2014-Sep-24 04:29N 67°04' E 013°53'8 8.6
2014-Sep-24 03:33N 67°10' E 014°05'5 5.2
2014-Sep-24 02:34N 67°09' E 014°18'4 0.3
2014-Sep-23 12:32N 67°05' E 014°18'6 6.2
2014-Sep-23 11:33N 67°11' E 014°19'7 6.6
2014-Sep-23 10:33N 67°09' E 014°02'12 8.2
2014-Sep-23 09:06N 67°01' E 013°41'6 8.5
2014-Sep-23 08:27N 66°57' E 013°30'30 7.8
2014-Sep-23 04:33N 66°29' E 012°59'8 8.3
2014-Sep-23 03:33N 66°21' E 012°58'3 0.1
2014-Sep-22 05:07N 66°19' E 012°56'5 8.6
2014-Sep-22 04:33N 66°23' E 012°58'39 7.7
2014-Sep-21 23:30N 66°59' E 013°36'9 8.0
2014-Sep-21 22:26N 67°04' E 013°54'7 7.9
2014-Sep-21 21:33N 67°10' E 014°03'8 8.1
2014-Sep-21 20:33N 67°17' E 014°14'8 8.0
2014-Sep-21 19:33N 67°24' E 014°26'8 8.1
2014-Sep-21 18:33N 67°32' E 014°30'  
Track history (hours):
 
Tides and Currents Weather Stations Pressure Air Temp Water Temp Dewpoint Dewpoint Depression Visibility Wind Speed Wind Dir Waves Ship Positions

Vestborg

Last reported at 2014-Oct-01 00:33 UTC. Time now 2014-Oct-01 08:23 UTC.
Position N 67°15' E 014°59'.

Length 66 m; draft 5.4 m.

Type: Cargo ship. MMSI: 518120000.

Date/timePositionNaut miles runAvg speedWind from/ knotsBaromVisibWave heightAir tempDewpointWater temp
2014-Oct-01 00:33N 67°15' E 014°59'7 7.4
2014-Sep-30 23:33N 67°13' E 014°41'4 4.0
2014-Sep-30 22:33N 67°15' E 014°32'7 6.8
2014-Sep-30 21:33N 67°15' E 014°14'4 4.4
2014-Sep-30 20:33N 67°18' E 014°23'0 0.0
2014-Sep-30 19:33N 67°18' E 014°23'0 0.0
2014-Sep-30 18:33N 67°18' E 014°23'0 0.0
2014-Sep-30 17:33N 67°18' E 014°23'0 0.0
2014-Sep-30 16:33N 67°18' E 014°23'0 0.0
2014-Sep-30 15:33N 67°18' E 014°23'0 0.0
2014-Sep-30 14:33N 67°18' E 014°23'0 0.0
2014-Sep-30 13:33N 67°18' E 014°23'58 4.1
2014-Sep-29 23:21N 66°31' E 012°58'6 7.8
2014-Sep-29 22:32N 66°24' E 012°59'18 3.4
2014-Sep-29 17:16N 66°07' E 012°45'  
2014-Sep-26 07:33N 66°23' E 012°58'7 6.7
2014-Sep-26 06:32N 66°30' E 012°59'6 6.5
2014-Sep-26 05:33N 66°36' E 013°04'24 7.2
2014-Sep-26 02:17N 66°57' E 013°29'7 7.9
2014-Sep-26 01:21N 67°01' E 013°45'7 8.2
2014-Sep-26 00:31N 67°06' E 013°58'8 8.0
2014-Sep-25 23:33N 67°13' E 014°08'8 7.9
2014-Sep-25 22:34N 67°17' E 014°24'1 0.8
2014-Sep-25 21:33N 67°17' E 014°22'3 3.1
2014-Sep-25 20:33N 67°15' E 014°27'6 5.6
2014-Sep-25 19:33N 67°13' E 014°41'3 3.1
2014-Sep-25 18:33N 67°15' E 014°48'5 4.5
2014-Sep-25 17:33N 67°15' E 014°60'2 0.1
2014-Sep-25 02:33N 67°16' E 014°55'7 7.5
2014-Sep-25 01:33N 67°14' E 014°36'4 4.1
2014-Sep-25 00:33N 67°14' E 014°26'4 3.9
2014-Sep-24 23:33N 67°13' E 014°17'5 4.6
2014-Sep-24 22:33N 67°11' E 014°06'8 7.6
2014-Sep-24 21:33N 67°05' E 013°55'8 8.1
2014-Sep-24 20:31N 66°60' E 013°38'32 7.7
2014-Sep-24 16:24N 66°32' E 012°59'7 8.2
2014-Sep-24 15:30N 66°25' E 012°59'4 0.8
2014-Sep-24 10:21N 66°21' E 012°57'7 8.8
2014-Sep-24 09:33N 66°28' E 012°59'29 8.5
2014-Sep-24 06:04N 66°55' E 013°28'4 7.8
2014-Sep-24 05:31N 66°59' E 013°34'9 9.0
2014-Sep-24 04:29N 67°04' E 013°53'8 8.6
2014-Sep-24 03:33N 67°10' E 014°05'5 5.2
2014-Sep-24 02:34N 67°09' E 014°18'4 0.3
2014-Sep-23 12:32N 67°05' E 014°18'6 6.2
2014-Sep-23 11:33N 67°11' E 014°19'7 6.6
2014-Sep-23 10:33N 67°09' E 014°02'12 8.2
2014-Sep-23 09:06N 67°01' E 013°41'6 8.5
2014-Sep-23 08:27N 66°57' E 013°30'30 7.8
2014-Sep-23 04:33N 66°29' E 012°59'8 8.3
2014-Sep-23 03:33N 66°21' E 012°58'3 0.1
2014-Sep-22 05:07N 66°19' E 012°56'5 8.6
2014-Sep-22 04:33N 66°23' E 012°58'39 7.7
2014-Sep-21 23:30N 66°59' E 013°36'9 8.0
2014-Sep-21 22:26N 67°04' E 013°54'7 7.9
2014-Sep-21 21:33N 67°10' E 014°03'8 8.1
2014-Sep-21 20:33N 67°17' E 014°14'8 8.0
2014-Sep-21 19:33N 67°24' E 014°26'8 8.1
2014-Sep-21 18:33N 67°32' E 014°30'  

Dump ship's entire track history